Weather History for Custer, SD

Change the Weather History Date:

Wednesday, April 30, 2014

  Actual Average Record
Temperature  
Mean Temperature 34 °F 44 °F  
Max Temperature 43 °F 56 °F 79 °F (1992)
Min Temperature 24 °F 31 °F 9 °F (1956)
Degree Days  
Heating Degree Days 31 21  
Month to date heating degree days 771 776  
Since 1 July heating degree days 7681 7650  
Cooling Degree Days 0 0  
Month to date cooling degree days 0 0  
Year to date cooling degree days 0 0  
Moisture  
Dew Point 21 °F    
Average Humidity 57    
Maximum Humidity 75    
Minimum Humidity 38    
Precipitation  
Precipitation T in 0.09 in 0.60 in (1993)
Month to date precipitation 2.07 2.12  
Year to date precipitation 4.60 3.99  
Sea Level Pressure  
Sea Level Pressure 30.22 in    
Wind  
Wind Speed 12 mph (NNW)    
Max Wind Speed 28 mph    
Max Gust Speed 40 mph    
Visibility 10 miles    
Events Snow    
T = Trace of Precipitation, MM = Missing Value Source: NWS Daily Summary

Daily Weather History Graph

Daily Weather History Graph

Search for Another Location

Airport:

Trip Planner

Search our weather history database for the weather conditions in past years. The results will help you decide how hot, cold, wet, or windy it might be!

Date:

Astronomy

Apr. 30, 2014 Rise Set
Actual Time 5:48 AM MDT 7:56 PM MDT
Civil Twilight 5:16 AM MDT 8:27 PM MDT
Nautical Twilight 4:38 AM MDT 9:06 PM MDT
Astronomical Twilight 3:55 AM MDT 9:49 PM MDT
Moon 6:49 AM MDT (4/30) 9:38 PM MDT (4/30)
Length of Visible Light 15h 10m
Length of Day
14h 07m
Waxing Crescent, 3% of the Moon is Illuminated
Apr 30
Waxing Crescent
May 6
First Quarter
May 14
Full
May 21
Last Quarter
May 28
New

Hourly Weather History & Observations

Time (MDT) Temp. Windchill Dew Point Humidity Pressure Visibility Wind Dir Wind Speed Gust Speed Precip Events Conditions
12:10 AM 28.0 °F 17.0 °F 18.0 °F 66% 30.20 in 10.0 mi North 13.8 mph 19.6 mph N/A   Mostly Cloudy
12:53 AM 28.0 °F 18.6 °F 17.1 °F 63% 30.27 in 10.0 mi North 10.4 mph 21.9 mph N/A   Overcast
1:53 AM 27.0 °F 18.7 °F 18.0 °F 69% 30.27 in 10.0 mi North 8.1 mph - N/A   Overcast
2:53 AM 27.0 °F 19.5 °F 17.1 °F 66% 30.26 in 10.0 mi NW 6.9 mph - N/A   Overcast
3:53 AM 26.1 °F 17.6 °F 16.0 °F 66% 30.27 in 10.0 mi NW 8.1 mph - N/A   Overcast
4:53 AM 26.1 °F 20.5 °F 17.1 °F 69% 30.26 in 10.0 mi Variable 4.6 mph - N/A   Overcast
5:42 AM 25.0 °F 19.3 °F 16.0 °F 69% 30.16 in 10.0 mi WNW 4.6 mph - N/A   Partly Cloudy
5:53 AM 25.0 °F 19.3 °F 16.0 °F 69% 30.24 in 10.0 mi Variable 4.6 mph - N/A   Partly Cloudy
6:53 AM 28.0 °F 22.8 °F 16.0 °F 61% 30.24 in 10.0 mi Variable 4.6 mph - N/A   Clear
7:53 AM 30.9 °F 22.8 °F 15.1 °F 52% 30.23 in 10.0 mi NNW 9.2 mph 25.3 mph N/A   Clear
9:53 AM 36.0 °F 28.5 °F 21.0 °F 55% 30.24 in 10.0 mi North 10.4 mph 27.6 mph N/A   Partly Cloudy
10:53 AM 37.9 °F 27.9 °F 21.9 °F 53% 30.23 in 10.0 mi North 19.6 mph 26.5 mph N/A   Partly Cloudy
11:53 AM 37.9 °F 27.9 °F 19.0 °F 47% 30.24 in 10.0 mi North 19.6 mph 34.5 mph N/A   Clear
12:53 PM 39.9 °F 30.8 °F 19.9 °F 45% 30.22 in 10.0 mi NNW 18.4 mph 34.5 mph N/A   Clear
1:53 PM 39.9 °F 30.5 °F 19.0 °F 43% 30.21 in 10.0 mi North 19.6 mph 38.0 mph N/A   Clear
2:53 PM 41.0 °F 32.5 °F 18.0 °F 40% 30.22 in 10.0 mi NNW 17.3 mph 34.5 mph N/A   Clear
3:53 PM 41.0 °F 31.6 °F 19.0 °F 41% 30.22 in 10.0 mi North 20.7 mph 35.7 mph N/A   Clear
4:53 PM 42.1 °F 35.7 °F 19.9 °F 41% 30.22 in 10.0 mi NNW 11.5 mph 28.8 mph N/A   Mostly Cloudy
5:53 PM 41.0 °F 33.9 °F 21.9 °F 47% 30.23 in 10.0 mi NNW 12.7 mph 28.8 mph N/A   Partly Cloudy
6:53 PM 39.9 °F 33.4 °F 24.1 °F 53% 30.22 in 10.0 mi NNW 10.4 mph 31.1 mph N/A   Scattered Clouds
7:53 PM 37.9 °F 30.0 °F 24.1 °F 57% 30.22 in 10.0 mi North 12.7 mph 25.3 mph N/A   Mostly Cloudy
8:15 PM 35.1 °F 27.9 °F 28.9 °F 78% 30.18 in 2.5 mi NNW 9.2 mph 23.0 mph 0.00 in Snow Light Snow
8:20 PM 35.1 °F 27.9 °F 28.9 °F 78% 30.18 in 4.0 mi NNW 9.2 mph 21.9 mph 0.00 in Snow Light Snow
8:53 PM 35.1 °F 26.9 °F 28.0 °F 76% 30.23 in 9.0 mi NNW 11.5 mph 18.4 mph 0.00 in   Partly Cloudy
9:53 PM 36.0 °F 28.5 °F 26.1 °F 67% 30.22 in 10.0 mi NNW 10.4 mph - N/A   Scattered Clouds
10:53 PM 35.1 °F 26.9 °F 25.0 °F 67% 30.19 in 10.0 mi North 11.5 mph 20.7 mph N/A   Clear
11:53 PM 34.0 °F 26.6 °F 23.0 °F 64% 30.19 in 10.0 mi North 9.2 mph 17.3 mph N/A   Clear